sat.trackr.live / text

‹ back to catalog

STARLINK-34587

NORAD 64735 · 2025-144M

PAYLOAD ACTIVE UNKNOWN

§ Identity

Operator
Country
US
Launch date
2025-07-02
Launch site
AFETR
Launch vehicle
Mass (kg)
RCS (m²)

Purposes: comms

External: N2YO · Heavens-Above · Gunter

§ Orbital elements

Epoch: 2026-05-25T03:13:10.913376Z

Period
94.10 min
Inclination
53.1578°
Eccentricity
0.0001162
Mean motion
15.30205822 rev/d
Perigee alt
474.4 km
Apogee alt
476.0 km
Semi-major
6,853.3 km
B*
4.1145e-4
RAAN
186.1275°
Arg perigee
81.9688°
Mean anomaly
278.1445°
Rev number
5,136

§ Raw data

STARLINK-345871 64735U 25144M   26145.13415409  .00011849  00000+0  41145-3 0  99962 64735  53.1578 186.1275 0001162  81.9688 278.1445 15.30205822 51360

JSON: /api/v1/satellites/64735 · /tle

For live sub-satellite position, see the globe view (requires WebGL).

§ Visibility from observer

Set your observer location to see the next 7 days of passes ≥ 10°. The values pass through the URL so the page stays shareable.

No JS? Fill the form by hand. The geolocation button needs JavaScript.